Time,TemperatureF,DewpointF,PressureIn,WindDirection,WindDirectionDegrees,WindSpeedMPH,WindSpeedGustMPH,Humidity,HourlyPrecipIn,Conditions,Clouds,dailyrainin,SolarRadiationWatts/m^2,SoftwareType,DateUTC
2013-02-09 00:01:00,42.1,29.2,30.04,WNW,303,1.0,4.0,60,0.00,CLR,,0.00,0.0,WeatherDisplay:10.37,2013-02-09 05:01:00,
2013-02-09 00:11:00,41.9,29.4,30.05,WNW,290,1.0,4.0,61,0.00,CLR,,0.00,0.0,WeatherDisplay:10.37,2013-02-09 05:11:00,
2013-02-09 00:16:00,41.9,29.4,30.05,WNW,286,1.0,4.0,61,0.00,CLR,,0.00,0.0,WeatherDisplay:10.37,2013-02-09 05:16:00,
2013-02-09 00:21:00,41.8,29.3,30.05,West,275,1.0,3.0,61,0.00,CLR,,0.00,0.0,WeatherDisplay:10.37,2013-02-09 05:21:00,
2013-02-09 00:26:00,41.6,29.1,30.05,West,269,1.0,6.0,61,0.00,CLR,,0.00,0.0,WeatherDisplay:10.37,2013-02-09 05:26:00,
2013-02-09 00:31:00,41.6,29.1,30.05,West,264,0.0,7.0,61,0.00,CLR,,0.00,0.0,WeatherDisplay:10.37,2013-02-09 05:31:00,
2013-02-09 00:36:00,41.5,29.0,30.05,WNW,283,1.0,8.0,61,0.00,CLR,,0.00,0.0,WeatherDisplay:10.37,2013-02-09 05:36:00,
2013-02-09 00:41:00,41.4,28.9,30.04,WNW,290,1.0,4.0,61,0.00,CLR,,0.00,0.0,WeatherDisplay:10.37,2013-02-09 05:41:00,
2013-02-09 00:46:00,41.3,29.3,30.04,WNW,283,0.0,5.0,62,0.00,CLR,,0.00,0.0,WeatherDisplay:10.37,2013-02-09 05:46:00,
2013-02-09 00:56:00,41.1,29.5,30.04,West,277,0.0,3.0,63,0.00,CLR,,0.00,0.0,WeatherDisplay:10.37,2013-02-09 05:56:00,
2013-02-09 01:01:00,40.9,29.3,30.03,West,269,1.0,4.0,63,0.00,CLR,,0.00,0.0,WeatherDisplay:10.37,2013-02-09 06:01:00,
2013-02-09 01:06:00,40.8,29.2,30.04,West,270,0.0,4.0,63,0.00,CLR,,0.00,0.0,WeatherDisplay:10.37,2013-02-09 06:06:00,
2013-02-09 01:11:00,40.6,29.0,30.04,West,274,1.0,4.0,63,0.00,CLR,,0.00,0.0,WeatherDisplay:10.37,2013-02-09 06:11:00,
2013-02-09 01:16:00,40.5,28.9,30.04,West,273,1.0,5.0,63,0.00,CLR,,0.00,0.0,WeatherDisplay:10.37,2013-02-09 06:16:00,
2013-02-09 01:21:00,40.3,28.7,30.03,WSW,255,0.0,5.0,63,0.00,CLR,,0.00,0.0,WeatherDisplay:10.37,2013-02-09 06:21:00,
2013-02-09 01:26:00,40.2,28.6,30.04,WSW,256,1.0,5.0,63,0.00,CLR,,0.00,0.0,WeatherDisplay:10.37,2013-02-09 06:26:00,
2013-02-09 01:31:00,40.1,28.5,30.04,West,274,0.0,2.0,63,0.00,CLR,,0.00,0.0,WeatherDisplay:10.37,2013-02-09 06:31:00,
2013-02-09 01:36:00,40.0,28.8,30.05,West,274,0.0,4.0,64,0.00,CLR,,0.00,0.0,WeatherDisplay:10.37,2013-02-09 06:36:00,
2013-02-09 01:41:00,39.9,28.7,30.05,West,275,0.0,2.0,64,0.00,CLR,,0.00,0.0,WeatherDisplay:10.37,2013-02-09 06:41:00,
2013-02-09 01:46:00,39.8,28.6,30.05,West,275,1.0,4.0,64,0.00,CLR,,0.00,0.0,WeatherDisplay:10.37,2013-02-09 06:46:00,
2013-02-09 01:51:00,39.6,28.4,30.05,West,274,1.0,4.0,64,0.00,CLR,,0.00,0.0,WeatherDisplay:10.37,2013-02-09 06:51:00,
2013-02-09 01:56:00,39.6,28.4,30.05,West,276,0.0,4.0,64,0.00,CLR,,0.00,0.0,WeatherDisplay:10.37,2013-02-09 06:56:00,
2013-02-09 02:01:00,39.5,28.3,30.05,West,277,0.0,2.0,64,0.00,CLR,,0.00,0.0,WeatherDisplay:10.37,2013-02-09 07:01:00,
2013-02-09 02:06:00,39.3,28.5,30.05,West,275,0.0,0.0,65,0.00,CLR,,0.00,0.0,WeatherDisplay:10.37,2013-02-09 07:06:00,
2013-02-09 02:11:00,39.2,28.8,30.06,West,275,0.0,0.0,66,0.00,CLR,,0.00,0.0,WeatherDisplay:10.37,2013-02-09 07:11:00,
2013-02-09 02:16:00,39.2,28.8,30.06,West,275,0.0,0.0,66,0.00,CLR,,0.00,0.0,WeatherDisplay:10.37,2013-02-09 07:16:00,
2013-02-09 02:21:00,39.1,28.7,30.06,West,275,0.0,0.0,66,0.00,CLR,,0.00,0.0,WeatherDisplay:10.37,2013-02-09 07:21:00,
2013-02-09 02:26:00,38.8,28.4,30.06,West,275,0.0,0.0,66,0.00,CLR,,0.00,0.0,WeatherDisplay:10.37,2013-02-09 07:26:00,
2013-02-09 02:31:00,38.6,28.2,30.06,West,275,0.0,0.0,66,0.00,CLR,,0.00,0.0,WeatherDisplay:10.37,2013-02-09 07:31:00,
2013-02-09 02:36:00,38.5,28.5,30.06,West,275,0.0,0.0,67,0.00,CLR,,0.00,0.0,WeatherDisplay:10.37,2013-02-09 07:36:00,
2013-02-09 02:41:00,38.2,28.2,30.06,West,275,0.0,0.0,67,0.00,CLR,,0.00,0.0,WeatherDisplay:10.37,2013-02-09 07:41:00,
2013-02-09 02:46:00,38.0,28.0,30.06,West,275,0.0,0.0,67,0.00,CLR,,0.00,0.0,WeatherDisplay:10.37,2013-02-09 07:46:00,
2013-02-09 02:51:00,37.9,27.9,30.06,West,275,0.0,0.0,67,0.00,CLR,,0.00,0.0,WeatherDisplay:10.37,2013-02-09 07:51:00,
2013-02-09 02:56:00,37.8,28.2,30.06,West,275,0.0,0.0,68,0.00,CLR,,0.00,0.0,WeatherDisplay:10.37,2013-02-09 07:56:00,
2013-02-09 03:01:00,37.5,27.9,30.06,West,275,0.0,0.0,68,0.00,CLR,,0.00,0.0,WeatherDisplay:10.37,2013-02-09 08:01:00,
2013-02-09 03:06:00,37.3,28.1,30.05,West,275,0.0,0.0,69,0.00,CLR,,0.00,0.0,WeatherDisplay:10.37,2013-02-09 08:06:00,
2013-02-09 03:11:00,37.0,27.8,30.05,West,275,0.0,0.0,69,0.00,CLR,,0.00,0.0,WeatherDisplay:10.37,2013-02-09 08:11:00,
2013-02-09 03:16:00,36.9,28.0,30.05,West,275,0.0,0.0,70,0.00,CLR,,0.00,0.0,WeatherDisplay:10.37,2013-02-09 08:16:00,
2013-02-09 03:21:00,36.6,28.1,30.05,West,275,0.0,0.0,71,0.00,CLR,,0.00,0.0,WeatherDisplay:10.37,2013-02-09 08:21:00,
2013-02-09 03:26:00,36.3,27.8,30.06,West,275,0.0,0.0,71,0.00,CLR,,0.00,0.0,WeatherDisplay:10.37,2013-02-09 08:26:00,
2013-02-09 03:31:00,36.2,27.7,30.06,West,275,0.0,0.0,71,0.00,CLR,,0.00,0.0,WeatherDisplay:10.37,2013-02-09 08:31:00,
2013-02-09 03:36:00,35.9,27.4,30.06,West,275,0.0,0.0,71,0.00,CLR,,0.00,0.0,WeatherDisplay:10.37,2013-02-09 08:36:00,
2013-02-09 03:41:00,35.8,27.7,30.06,West,275,0.0,0.0,72,0.00,CLR,,0.00,0.0,WeatherDisplay:10.37,2013-02-09 08:41:00,
2013-02-09 03:46:00,35.6,27.8,30.06,West,275,0.0,0.0,73,0.00,CLR,,0.00,0.0,WeatherDisplay:10.37,2013-02-09 08:46:00,
2013-02-09 03:51:00,35.4,27.6,30.06,West,275,0.0,0.0,73,0.00,CLR,,0.00,0.0,WeatherDisplay:10.37,2013-02-09 08:51:00,
2013-02-09 03:56:00,35.2,27.7,30.07,West,275,0.0,0.0,74,0.00,CLR,,0.00,0.0,WeatherDisplay:10.37,2013-02-09 08:56:00,
2013-02-09 04:01:00,35.0,27.5,30.07,West,275,0.0,0.0,74,0.00,CLR,,0.00,0.0,WeatherDisplay:10.37,2013-02-09 09:01:00,
2013-02-09 04:06:00,34.9,27.8,30.07,West,275,0.0,0.0,75,0.00,CLR,,0.00,0.0,WeatherDisplay:10.37,2013-02-09 09:06:00,
2013-02-09 04:11:00,34.7,27.6,30.07,West,275,0.0,0.0,75,0.00,CLR,,0.00,0.0,WeatherDisplay:10.37,2013-02-09 09:11:00,
2013-02-09 04:16:00,34.6,27.5,30.08,West,275,0.0,0.0,75,0.00,CLR,,0.00,0.0,WeatherDisplay:10.37,2013-02-09 09:16:00,
2013-02-09 04:21:00,34.4,27.6,30.08,West,275,0.0,0.0,76,0.00,CLR,,0.00,0.0,WeatherDisplay:10.37,2013-02-09 09:21:00,
2013-02-09 04:26:00,34.3,27.5,30.08,West,275,0.0,0.0,76,0.00,CLR,,0.00,0.0,WeatherDisplay:10.37,2013-02-09 09:26:00,
2013-02-09 04:31:00,34.1,27.6,30.09,West,275,0.0,0.0,77,0.00,CLR,,0.00,0.0,WeatherDisplay:10.37,2013-02-09 09:31:00,
2013-02-09 04:36:00,34.0,27.9,30.09,West,275,0.0,0.0,78,0.00,CLR,,0.00,0.0,WeatherDisplay:10.37,2013-02-09 09:36:00,
2013-02-09 04:41:00,33.8,27.7,30.09,West,275,0.0,0.0,78,0.00,CLR,,0.00,0.0,WeatherDisplay:10.37,2013-02-09 09:41:00,
2013-02-09 04:46:00,33.7,27.6,30.09,West,275,0.0,0.0,78,0.00,CLR,,0.00,0.0,WeatherDisplay:10.37,2013-02-09 09:46:00,
2013-02-09 04:51:00,33.5,27.4,30.09,West,275,0.0,1.0,78,0.00,CLR,,0.00,0.0,WeatherDisplay:10.37,2013-02-09 09:51:00,
2013-02-09 04:56:00,33.4,27.3,30.10,West,275,0.0,1.0,78,0.00,CLR,,0.00,0.0,WeatherDisplay:10.37,2013-02-09 09:56:00,
2013-02-09 05:01:00,33.2,27.4,30.11,West,275,0.0,0.0,79,0.00,CLR,,0.00,0.0,WeatherDisplay:10.37,2013-02-09 10:01:00,
2013-02-09 05:06:00,33.1,27.3,30.11,West,275,0.0,0.0,79,0.00,CLR,,0.00,0.0,WeatherDisplay:10.37,2013-02-09 10:06:00,
2013-02-09 05:11:00,33.0,27.2,30.11,West,275,0.0,1.0,79,0.00,CLR,,0.00,0.0,WeatherDisplay:10.37,2013-02-09 10:11:00,
2013-02-09 05:16:00,32.9,27.4,30.12,West,275,0.0,0.0,80,0.00,CLR,,0.00,0.0,WeatherDisplay:10.37,2013-02-09 10:16:00,
2013-02-09 05:21:00,32.9,27.4,30.12,West,275,0.0,1.0,80,0.00,CLR,,0.00,0.0,WeatherDisplay:10.37,2013-02-09 10:21:00,
2013-02-09 05:26:00,32.8,27.3,30.12,West,268,0.0,2.0,80,0.00,CLR,,0.00,0.0,WeatherDisplay:10.37,2013-02-09 10:26:00,
2013-02-09 05:31:00,32.8,27.3,30.12,West,260,0.0,2.0,80,0.00,CLR,,0.00,0.0,WeatherDisplay:10.37,2013-02-09 10:31:00,
2013-02-09 05:36:00,32.8,27.3,30.13,WSW,258,0.0,0.0,80,0.00,CLR,,0.00,0.0,WeatherDisplay:10.37,2013-02-09 10:36:00,
2013-02-09 05:41:00,32.8,27.3,30.13,WSW,258,0.0,0.0,80,0.00,CLR,,0.00,0.0,WeatherDisplay:10.37,2013-02-09 10:41:00,
2013-02-09 05:46:00,32.8,27.3,30.13,WSW,258,0.0,0.0,80,0.00,CLR,,0.00,0.0,WeatherDisplay:10.37,2013-02-09 10:46:00,
2013-02-09 05:51:00,32.8,27.3,30.14,WSW,258,0.0,0.0,80,0.00,CLR,,0.00,0.0,WeatherDisplay:10.37,2013-02-09 10:51:00,
2013-02-09 05:56:00,32.8,27.3,30.14,WSW,258,0.0,0.0,80,0.00,CLR,,0.00,0.0,WeatherDisplay:10.37,2013-02-09 10:56:00,
2013-02-09 06:01:00,32.8,27.3,30.14,WSW,258,0.0,0.0,80,0.00,CLR,,0.00,0.0,WeatherDisplay:10.37,2013-02-09 11:01:00,
2013-02-09 06:06:00,32.8,27.3,30.14,WSW,258,0.0,0.0,80,0.00,CLR,,0.00,0.0,WeatherDisplay:10.37,2013-02-09 11:06:00,
2013-02-09 06:11:00,32.7,27.2,30.15,WSW,258,0.0,0.0,80,0.00,CLR,,0.00,0.0,WeatherDisplay:10.37,2013-02-09 11:11:00,
2013-02-09 06:16:00,32.7,27.2,30.15,WSW,258,0.0,3.0,80,0.00,CLR,,0.00,0.0,WeatherDisplay:10.37,2013-02-09 11:16:00,
2013-02-09 06:21:00,32.7,27.2,30.15,WSW,258,0.0,0.0,80,0.00,CLR,,0.00,0.0,WeatherDisplay:10.37,2013-02-09 11:21:00,
2013-02-09 06:26:00,32.7,27.2,30.15,WSW,258,0.0,0.0,80,0.00,CLR,,0.00,0.0,WeatherDisplay:10.37,2013-02-09 11:26:00,
2013-02-09 06:31:00,32.6,27.1,30.16,WSW,258,0.0,0.0,80,0.00,CLR,,0.00,0.0,WeatherDisplay:10.37,2013-02-09 11:31:00,
2013-02-09 06:36:00,32.5,27.0,30.16,West,263,0.0,2.0,80,0.00,CLR,,0.00,0.0,WeatherDisplay:10.37,2013-02-09 11:36:00,
2013-02-09 06:41:00,32.5,27.0,30.16,West,267,0.0,2.0,80,0.00,CLR,,0.00,0.0,WeatherDisplay:10.37,2013-02-09 11:41:00,
2013-02-09 06:46:00,32.5,27.0,30.17,West,268,0.0,0.0,80,0.00,CLR,,0.00,0.0,WeatherDisplay:10.37,2013-02-09 11:46:00,
2013-02-09 06:51:00,32.5,27.0,30.17,West,269,0.0,3.0,80,0.00,CLR,,0.00,0.0,WeatherDisplay:10.37,2013-02-09 11:51:00,
2013-02-09 06:56:00,32.7,27.2,30.17,West,269,0.0,0.0,80,0.00,CLR,,0.00,0.0,WeatherDisplay:10.37,2013-02-09 11:56:00,
2013-02-09 07:01:00,32.7,27.2,30.17,West,269,0.0,0.0,80,0.00,FEW,,0.00,0.0,WeatherDisplay:10.37,2013-02-09 12:01:00,
2013-02-09 07:06:00,32.7,26.9,30.17,West,269,0.0,0.0,79,0.00,FEW,,0.00,0.0,WeatherDisplay:10.37,2013-02-09 12:06:00,
2013-02-09 07:11:00,32.7,26.9,30.18,West,269,0.0,0.0,79,0.00,FEW,,0.00,5.8,WeatherDisplay:10.37,2013-02-09 12:11:00,
2013-02-09 07:16:00,32.6,26.8,30.17,West,269,0.0,2.0,79,0.00,FEW,,0.00,8.0,WeatherDisplay:10.37,2013-02-09 12:16:00,
2013-02-09 07:21:00,32.5,26.7,30.18,West,269,0.0,1.0,79,0.00,FEW,,0.00,10.4,WeatherDisplay:10.37,2013-02-09 12:21:00,
2013-02-09 07:26:00,32.5,26.7,30.19,West,269,0.0,0.0,79,0.00,FEW,,0.00,12.6,WeatherDisplay:10.37,2013-02-09 12:26:00,
2013-02-09 07:31:00,32.5,26.7,30.19,West,269,0.0,2.0,79,0.00,FEW,,0.00,16.1,WeatherDisplay:10.37,2013-02-09 12:31:00,
2013-02-09 07:36:00,32.5,26.7,30.19,West,269,0.0,0.0,79,0.00,FEW,,0.00,18.4,WeatherDisplay:10.37,2013-02-09 12:36:00,
2013-02-09 07:41:00,32.5,26.7,30.20,West,269,0.0,0.0,79,0.00,FEW,,0.00,20.7,WeatherDisplay:10.37,2013-02-09 12:41:00,
2013-02-09 07:46:00,32.7,26.9,30.20,West,269,0.0,0.0,79,0.00,FEW,,0.00,21.8,WeatherDisplay:10.37,2013-02-09 12:46:00,
2013-02-09 07:51:00,32.7,26.9,30.20,West,269,0.0,0.0,79,0.00,FEW,,0.00,24.2,WeatherDisplay:10.37,2013-02-09 12:51:00,
2013-02-09 07:56:00,32.7,26.9,30.21,West,269,0.0,0.0,79,0.00,FEW,,0.00,24.2,WeatherDisplay:10.37,2013-02-09 12:56:00,
2013-02-09 08:01:00,32.8,27.0,30.22,West,270,0.0,0.0,79,0.00,CLR,,0.00,26.5,WeatherDisplay:10.37,2013-02-09 13:01:00,
2013-02-09 08:06:00,32.9,27.1,30.22,NNW,333,0.0,2.0,79,0.00,CLR,,0.00,28.7,WeatherDisplay:10.37,2013-02-09 13:06:00,
2013-02-09 08:16:00,33.4,27.3,30.22,NNE,25,0.0,3.0,78,0.00,CLR,,0.00,29.9,WeatherDisplay:10.37,2013-02-09 13:16:00,
2013-02-09 08:21:00,33.5,27.4,30.22,North,4,0.0,1.0,78,0.00,CLR,,0.00,32.2,WeatherDisplay:10.37,2013-02-09 13:21:00,
2013-02-09 08:26:00,33.7,27.3,30.22,North,354,0.0,2.0,77,0.00,CLR,,0.00,32.2,WeatherDisplay:10.37,2013-02-09 13:26:00,
2013-02-09 08:31:00,34.0,27.2,30.22,North,353,1.0,2.0,76,0.00,CLR,,0.00,34.5,WeatherDisplay:10.37,2013-02-09 13:31:00,
2013-02-09 08:36:00,34.3,27.2,30.22,North,6,1.0,3.0,75,0.00,CLR,,0.00,34.5,WeatherDisplay:10.37,2013-02-09 13:36:00,
2013-02-09 08:41:00,34.7,27.5,30.23,NNE,19,1.0,2.0,75,0.00,CLR,,0.00,36.8,WeatherDisplay:10.37,2013-02-09 13:41:00,
2013-02-09 08:46:00,35.0,27.5,30.23,North,8,1.0,5.0,74,0.00,CLR,,0.00,36.8,WeatherDisplay:10.37,2013-02-09 13:46:00,
2013-02-09 08:51:00,35.3,27.5,30.23,North,352,1.0,5.0,73,0.00,CLR,,0.00,37.9,WeatherDisplay:10.37,2013-02-09 13:51:00,
2013-02-09 08:56:00,35.6,27.1,30.23,North,351,0.0,3.0,71,0.00,CLR,,0.00,40.3,WeatherDisplay:10.37,2013-02-09 13:56:00,
2013-02-09 09:01:00,35.9,27.7,30.23,NNW,338,1.0,5.0,72,0.00,CLR,,0.00,40.3,WeatherDisplay:10.37,2013-02-09 14:01:00,
2013-02-09 09:11:00,36.6,27.4,30.23,North,8,0.0,2.0,69,0.00,CLR,,0.00,42.6,WeatherDisplay:10.37,2013-02-09 14:11:00,
2013-02-09 09:16:00,36.9,27.0,30.24,North,6,2.0,5.0,67,0.00,CLR,,0.00,42.6,WeatherDisplay:10.37,2013-02-09 14:16:00,
2013-02-09 09:21:00,37.3,26.2,30.24,North,8,1.0,7.0,64,0.00,CLR,,0.00,42.6,WeatherDisplay:10.37,2013-02-09 14:21:00,
2013-02-09 09:26:00,37.8,26.3,30.24,North,1,1.0,7.0,63,0.00,CLR,,0.00,44.8,WeatherDisplay:10.37,2013-02-09 14:26:00,
2013-02-09 09:31:00,38.0,26.1,30.24,North,9,1.0,3.0,62,0.00,CLR,,0.00,44.8,WeatherDisplay:10.37,2013-02-09 14:31:00,
2013-02-09 09:36:00,38.6,25.5,30.24,NNE,12,2.0,5.0,59,0.00,CLR,,0.00,44.8,WeatherDisplay:10.37,2013-02-09 14:36:00,
2013-02-09 09:41:00,39.2,24.4,30.24,North,2,3.0,8.0,55,0.00,CLR,,0.00,44.8,WeatherDisplay:10.37,2013-02-09 14:41:00,
2013-02-09 09:46:00,39.8,24.4,30.25,NNW,342,3.0,7.0,54,0.00,CLR,,0.00,46.0,WeatherDisplay:10.37,2013-02-09 14:46:00,
2013-02-09 09:51:00,40.2,24.4,30.25,North,3,3.0,7.0,53,0.00,CLR,,0.00,46.0,WeatherDisplay:10.37,2013-02-09 14:51:00,
2013-02-09 09:56:00,40.6,24.8,30.25,North,354,3.0,7.0,53,0.00,CLR,,0.00,46.0,WeatherDisplay:10.37,2013-02-09 14:56:00,
2013-02-09 10:01:00,40.9,23.7,30.25,North,5,3.0,6.0,50,0.00,CLR,,0.00,46.0,WeatherDisplay:10.37,2013-02-09 15:01:00,
2013-02-09 10:11:00,41.6,24.3,30.25,North,2,1.0,7.0,50,0.00,CLR,,0.00,48.3,WeatherDisplay:10.37,2013-02-09 15:11:00,
2013-02-09 10:16:00,41.9,24.1,30.25,North,5,3.0,6.0,49,0.00,CLR,,0.00,48.3,WeatherDisplay:10.37,2013-02-09 15:16:00,
2013-02-09 10:21:00,42.2,23.4,30.25,North,9,3.0,6.0,47,0.00,CLR,,0.00,50.6,WeatherDisplay:10.37,2013-02-09 15:21:00,
2013-02-09 10:26:00,42.8,25.0,30.25,North,358,1.0,6.0,49,0.00,CLR,,0.00,579.6,WeatherDisplay:10.37,2013-02-09 15:26:00,
2013-02-09 10:31:00,43.8,24.4,30.26,NNW,348,2.0,5.0,46,0.00,CLR,,0.00,590.0,WeatherDisplay:10.37,2013-02-09 15:31:00,
2013-02-09 10:36:00,44.5,24.5,30.26,North,6,1.0,6.0,45,0.00,CLR,,0.00,606.0,WeatherDisplay:10.37,2013-02-09 15:36:00,
2013-02-09 10:41:00,44.8,23.7,30.26,NNE,23,2.0,6.0,43,0.00,CLR,,0.00,622.2,WeatherDisplay:10.37,2013-02-09 15:41:00,
2013-02-09 10:51:00,45.3,24.7,30.26,North,357,1.0,5.0,44,0.00,CLR,,0.00,645.1,WeatherDisplay:10.37,2013-02-09 15:51:00,
2013-02-09 10:56:00,46.0,24.7,30.26,North,352,3.0,5.0,43,0.00,CLR,,0.00,656.7,WeatherDisplay:10.37,2013-02-09 15:56:00,
2013-02-09 11:01:00,46.2,23.8,30.27,NNE,15,2.0,5.0,41,0.00,CLR,,0.00,667.0,WeatherDisplay:10.37,2013-02-09 16:01:00,
2013-02-09 11:06:00,46.2,23.8,30.27,NNE,13,2.0,5.0,41,0.00,CLR,,0.00,675.1,WeatherDisplay:10.37,2013-02-09 16:06:00,
2013-02-09 11:11:00,46.8,26.5,30.27,North,360,2.0,6.0,45,0.00,CLR,,0.00,687.7,WeatherDisplay:10.37,2013-02-09 16:11:00,
2013-02-09 11:16:00,47.6,25.0,30.26,NNW,339,2.0,5.0,41,0.00,CLR,,0.00,696.9,WeatherDisplay:10.37,2013-02-09 16:16:00,
2013-02-09 11:21:00,47.9,22.8,30.27,NNW,342,3.0,6.0,37,0.00,CLR,,0.00,707.3,WeatherDisplay:10.37,2013-02-09 16:21:00,
2013-02-09 11:26:00,48.0,22.3,30.27,NNW,337,3.0,6.0,36,0.00,CLR,,0.00,719.9,WeatherDisplay:10.37,2013-02-09 16:26:00,
2013-02-09 11:31:00,48.2,21.8,30.27,NNW,339,3.0,6.0,35,0.00,CLR,,0.00,725.7,WeatherDisplay:10.37,2013-02-09 16:31:00,
2013-02-09 11:36:00,48.5,22.1,30.27,North,9,2.0,6.0,35,0.00,CLR,,0.00,731.4,WeatherDisplay:10.37,2013-02-09 16:36:00,
2013-02-09 11:41:00,48.5,19.9,30.26,NNE,20,5.0,7.0,32,0.00,CLR,,0.00,739.4,WeatherDisplay:10.37,2013-02-09 16:41:00,
2013-02-09 11:46:00,48.8,21.6,30.26,NNE,12,3.0,8.0,34,0.00,CLR,,0.00,741.7,WeatherDisplay:10.37,2013-02-09 16:46:00,
2013-02-09 11:51:00,49.2,24.0,30.26,North,6,2.0,6.0,37,0.00,CLR,,0.00,752.1,WeatherDisplay:10.37,2013-02-09 16:51:00,
2013-02-09 11:56:00,49.4,20.7,30.26,North,351,2.0,6.0,32,0.00,CLR,,0.00,730.3,WeatherDisplay:10.37,2013-02-09 16:56:00,
2013-02-09 12:01:00,49.6,20.9,30.26,North,350,2.0,5.0,32,0.00,CLR,,0.00,671.6,WeatherDisplay:10.37,2013-02-09 17:01:00,
2013-02-09 12:06:00,49.8,20.3,30.26,NNE,12,3.0,7.0,31,0.00,CLR,,0.00,612.9,WeatherDisplay:10.37,2013-02-09 17:06:00,
2013-02-09 12:11:00,49.5,19.3,30.26,North,3,1.0,7.0,30,0.00,CLR,,0.00,594.5,WeatherDisplay:10.37,2013-02-09 17:11:00,
2013-02-09 12:16:00,49.9,21.9,30.26,North,350,3.0,6.0,33,0.00,CLR,,0.00,624.5,WeatherDisplay:10.37,2013-02-09 17:16:00,
2013-02-09 12:21:00,50.2,21.4,30.25,North,359,2.0,5.0,32,0.00,CLR,,0.00,696.9,WeatherDisplay:10.37,2013-02-09 17:21:00,
2013-02-09 12:26:00,50.7,21.1,30.26,NNW,336,1.0,6.0,31,0.00,CLR,,0.00,747.5,WeatherDisplay:10.37,2013-02-09 17:26:00,
2013-02-09 12:31:00,51.0,21.4,30.25,NW,325,2.0,5.0,31,0.00,CLR,,0.00,771.7,WeatherDisplay:10.37,2013-02-09 17:31:00,
2013-02-09 12:36:00,51.0,21.4,30.25,North,359,1.0,6.0,31,0.00,CLR,,0.00,771.7,WeatherDisplay:10.37,2013-02-09 17:36:00,
2013-02-09 12:41:00,51.0,19.8,30.25,North,7,3.0,6.0,29,0.00,CLR,,0.00,774.0,WeatherDisplay:10.37,2013-02-09 17:41:00,
2013-02-09 12:46:00,51.0,20.6,30.25,NNE,13,1.0,5.0,30,0.00,CLR,,0.00,774.0,WeatherDisplay:10.37,2013-02-09 17:46:00,
2013-02-09 12:51:00,51.2,19.2,30.25,North,349,2.0,6.0,28,0.00,CLR,,0.00,770.5,WeatherDisplay:10.37,2013-02-09 17:51:00,
2013-02-09 12:56:00,51.2,20.8,30.25,NNE,17,2.0,7.0,30,0.00,CLR,,0.00,765.9,WeatherDisplay:10.37,2013-02-09 17:56:00,
2013-02-09 13:01:00,51.6,21.1,30.25,NNE,15,1.0,6.0,30,0.00,FEW,,0.00,752.1,WeatherDisplay:10.37,2013-02-09 18:01:00,
2013-02-09 13:06:00,51.4,20.2,30.25,North,2,1.0,5.0,29,0.00,FEW,,0.00,728.0,WeatherDisplay:10.37,2013-02-09 18:06:00,
2013-02-09 13:11:00,51.8,20.5,30.25,NNE,17,2.0,6.0,29,0.00,FEW,,0.00,703.8,WeatherDisplay:10.37,2013-02-09 18:11:00,
2013-02-09 13:16:00,52.2,20.0,30.25,North,2,1.0,5.0,28,0.00,FEW,,0.00,672.8,WeatherDisplay:10.37,2013-02-09 18:16:00,
2013-02-09 13:21:00,52.2,20.9,30.25,North,7,2.0,4.0,29,0.00,FEW,,0.00,638.3,WeatherDisplay:10.37,2013-02-09 18:21:00,
2013-02-09 13:26:00,52.0,19.0,30.25,North,359,1.0,7.0,27,0.00,FEW,,0.00,62.1,WeatherDisplay:10.37,2013-02-09 18:26:00,
2013-02-09 13:31:00,52.2,23.2,30.25,NW,320,2.0,6.0,32,0.00,FEW,,0.00,61.0,WeatherDisplay:10.37,2013-02-09 18:31:00,
2013-02-09 13:36:00,52.2,20.9,30.25,NW,311,1.0,6.0,29,0.00,FEW,,0.00,104.7,WeatherDisplay:10.37,2013-02-09 18:36:00,
2013-02-09 13:41:00,52.2,20.0,30.24,NW,319,3.0,6.0,28,0.00,FEW,,0.00,56.4,WeatherDisplay:10.37,2013-02-09 18:41:00,
2013-02-09 13:46:00,52.2,20.9,30.24,WNW,294,3.0,7.0,29,0.00,FEW,,0.00,56.4,WeatherDisplay:10.37,2013-02-09 18:46:00,
2013-02-09 13:51:00,52.3,20.9,30.24,WNW,290,1.0,5.0,29,0.00,FEW,,0.00,61.0,WeatherDisplay:10.37,2013-02-09 18:51:00,
2013-02-09 13:56:00,52.5,20.3,30.24,NNW,336,2.0,5.0,28,0.00,FEW,,0.00,238.0,WeatherDisplay:10.37,2013-02-09 18:56:00,
2013-02-09 14:01:00,52.5,19.4,30.24,NNW,347,2.0,5.0,27,0.00,CLR,,0.00,93.2,WeatherDisplay:10.37,2013-02-09 19:01:00,
2013-02-09 14:06:00,52.6,19.5,30.24,NW,309,2.0,8.0,27,0.00,CLR,,0.00,64.4,WeatherDisplay:10.37,2013-02-09 19:06:00,
2013-02-09 14:11:00,52.8,20.5,30.24,NW,304,2.0,5.0,28,0.00,CLR,,0.00,88.6,WeatherDisplay:10.37,2013-02-09 19:11:00,
2013-02-09 14:16:00,52.9,20.6,30.24,NW,326,1.0,5.0,28,0.00,CLR,,0.00,72.4,WeatherDisplay:10.37,2013-02-09 19:16:00,
2013-02-09 14:21:00,53.2,21.7,30.24,NW,323,2.0,6.0,29,0.00,CLR,,0.00,125.4,WeatherDisplay:10.37,2013-02-09 19:21:00,
2013-02-09 14:26:00,53.2,20.0,30.24,NW,322,2.0,5.0,27,0.00,CLR,,0.00,634.8,WeatherDisplay:10.37,2013-02-09 19:26:00,
2013-02-09 14:31:00,53.2,20.0,30.24,NW,307,2.0,5.0,27,0.00,CLR,,0.00,632.5,WeatherDisplay:10.37,2013-02-09 19:31:00,
2013-02-09 14:36:00,53.2,20.0,30.24,WNW,303,2.0,5.0,27,0.00,CLR,,0.00,626.8,WeatherDisplay:10.37,2013-02-09 19:36:00,
2013-02-09 14:41:00,53.3,21.0,30.24,NNW,339,2.0,5.0,28,0.00,CLR,,0.00,616.4,WeatherDisplay:10.37,2013-02-09 19:41:00,
2013-02-09 14:46:00,53.5,20.3,30.24,NW,304,2.0,6.0,27,0.00,CLR,,0.00,600.3,WeatherDisplay:10.37,2013-02-09 19:46:00,
2013-02-09 14:51:00,53.5,20.3,30.24,West,274,1.0,6.0,27,0.00,CLR,,0.00,590.0,WeatherDisplay:10.37,2013-02-09 19:51:00,
2013-02-09 14:56:00,53.8,21.4,30.24,WNW,291,2.0,5.0,28,0.00,CLR,,0.00,573.8,WeatherDisplay:10.37,2013-02-09 19:56:00,
2013-02-09 15:01:00,54.1,21.7,30.24,NW,318,2.0,6.0,28,0.00,CLR,,0.00,560.0,WeatherDisplay:10.37,2013-02-09 20:01:00,
2013-02-09 15:06:00,54.1,19.0,30.24,NW,310,2.0,5.0,25,0.00,CLR,,0.00,547.4,WeatherDisplay:10.37,2013-02-09 20:06:00,
2013-02-09 15:11:00,54.2,20.0,30.24,WNW,284,2.0,5.0,26,0.00,CLR,,0.00,533.6,WeatherDisplay:10.37,2013-02-09 20:11:00,
2013-02-09 15:16:00,54.2,20.9,30.24,WNW,293,1.0,5.0,27,0.00,CLR,,0.00,519.8,WeatherDisplay:10.37,2013-02-09 20:16:00,
2013-02-09 15:21:00,54.2,19.1,30.24,WNW,289,3.0,6.0,25,0.00,CLR,,0.00,254.1,WeatherDisplay:10.37,2013-02-09 20:21:00,
2013-02-09 15:26:00,54.1,19.0,30.24,NW,318,2.0,3.0,25,0.00,CLR,,0.00,90.8,WeatherDisplay:10.37,2013-02-09 20:26:00,
2013-02-09 15:31:00,53.9,20.6,30.24,NNE,14,2.0,5.0,27,0.00,CLR,,0.00,127.7,WeatherDisplay:10.37,2013-02-09 20:31:00,
2013-02-09 15:36:00,53.9,21.5,30.24,NNW,332,0.0,5.0,28,0.00,CLR,,0.00,95.4,WeatherDisplay:10.37,2013-02-09 20:36:00,
2013-02-09 15:41:00,53.8,19.7,30.24,North,357,1.0,5.0,26,0.00,CLR,,0.00,170.2,WeatherDisplay:10.37,2013-02-09 20:41:00,
2013-02-09 15:46:00,53.8,21.5,30.24,NNW,342,1.0,5.0,28,0.00,CLR,,0.00,98.9,WeatherDisplay:10.37,2013-02-09 20:46:00,
2013-02-09 15:51:00,53.8,19.7,30.25,WNW,287,2.0,5.0,26,0.00,CLR,,0.00,87.4,WeatherDisplay:10.37,2013-02-09 20:51:00,
2013-02-09 15:56:00,53.6,19.5,30.25,NW,315,2.0,4.0,26,0.00,CLR,,0.00,44.8,WeatherDisplay:10.37,2013-02-09 20:56:00,
2013-02-09 16:01:00,53.5,20.3,30.25,NW,316,1.0,4.0,27,0.00,CLR,,0.00,42.6,WeatherDisplay:10.37,2013-02-09 21:01:00,
2013-02-09 16:11:00,53.1,20.0,30.24,North,5,1.0,6.0,27,0.00,CLR,,0.00,52.9,WeatherDisplay:10.37,2013-02-09 21:11:00,
2013-02-09 16:21:00,52.8,20.5,30.25,NNW,343,1.0,3.0,28,0.00,CLR,,0.00,54.0,WeatherDisplay:10.37,2013-02-09 21:21:00,
2013-02-09 16:26:00,52.6,22.0,30.25,NW,317,0.0,2.0,30,0.00,CLR,,0.00,104.7,WeatherDisplay:10.37,2013-02-09 21:26:00,
2013-02-09 16:31:00,52.5,19.4,30.25,NW,307,2.0,6.0,27,0.00,CLR,,0.00,52.9,WeatherDisplay:10.37,2013-02-09 21:31:00,
2013-02-09 16:36:00,52.5,20.3,30.25,NNW,336,0.0,2.0,28,0.00,CLR,,0.00,36.8,WeatherDisplay:10.37,2013-02-09 21:36:00,
2013-02-09 16:41:00,52.3,20.1,30.25,NNW,337,0.0,2.0,28,0.00,CLR,,0.00,34.5,WeatherDisplay:10.37,2013-02-09 21:41:00,
2013-02-09 16:46:00,52.1,19.9,30.25,North,357,0.0,2.0,28,0.00,CLR,,0.00,32.2,WeatherDisplay:10.37,2013-02-09 21:46:00,
2013-02-09 16:51:00,51.9,19.8,30.26,North,353,0.0,2.0,28,0.00,CLR,,0.00,29.9,WeatherDisplay:10.37,2013-02-09 21:51:00,
2013-02-09 16:56:00,51.7,19.6,30.26,NW,316,0.0,2.0,28,0.00,CLR,,0.00,28.7,WeatherDisplay:10.37,2013-02-09 21:56:00,
2013-02-09 17:01:00,51.4,20.2,30.26,NNW,330,0.0,1.0,29,0.00,CLR,,0.00,26.5,WeatherDisplay:10.37,2013-02-09 22:01:00,
2013-02-09 17:06:00,51.1,21.5,30.27,NNW,337,0.0,2.0,31,0.00,CLR,,0.00,24.2,WeatherDisplay:10.37,2013-02-09 22:06:00,
2013-02-09 17:11:00,51.0,20.6,30.27,NW,324,0.0,0.0,30,0.00,CLR,,0.00,21.8,WeatherDisplay:10.37,2013-02-09 22:11:00,
2013-02-09 17:16:00,50.8,20.4,30.27,NW,317,0.0,0.0,30,0.00,CLR,,0.00,20.7,WeatherDisplay:10.37,2013-02-09 22:16:00,
2013-02-09 17:21:00,50.5,20.9,30.27,NW,317,0.0,0.0,31,0.00,CLR,,0.00,18.4,WeatherDisplay:10.37,2013-02-09 22:21:00,
2013-02-09 17:26:00,50.4,20.9,30.27,NW,317,0.0,0.0,31,0.00,CLR,,0.00,16.1,WeatherDisplay:10.37,2013-02-09 22:26:00,
2013-02-09 17:31:00,50.1,22.1,30.27,NW,317,0.0,0.0,33,0.00,CLR,,0.00,13.8,WeatherDisplay:10.37,2013-02-09 22:31:00,
2013-02-09 17:36:00,49.9,21.2,30.27,NW,317,0.0,0.0,32,0.00,CLR,,0.00,12.6,WeatherDisplay:10.37,2013-02-09 22:36:00,
2013-02-09 17:41:00,49.6,20.9,30.28,NW,317,0.0,0.0,32,0.00,CLR,,0.00,8.0,WeatherDisplay:10.37,2013-02-09 22:41:00,
2013-02-09 17:46:00,49.4,21.4,30.28,NW,317,0.0,0.0,33,0.00,CLR,,0.00,5.8,WeatherDisplay:10.37,2013-02-09 22:46:00,
2013-02-09 17:51:00,48.9,21.0,30.28,NW,317,0.0,0.0,33,0.00,CLR,,0.00,0.0,WeatherDisplay:10.37,2013-02-09 22:51:00,
2013-02-09 17:56:00,48.6,21.5,30.28,NW,317,0.0,0.0,34,0.00,CLR,,0.00,0.0,WeatherDisplay:10.37,2013-02-09 22:56:00,
2013-02-09 18:01:00,48.3,21.2,30.28,NW,317,0.0,0.0,34,0.00,FEW,,0.00,0.0,WeatherDisplay:10.37,2013-02-09 23:01:00,
2013-02-09 18:06:00,48.0,20.9,30.28,NW,317,0.0,1.0,34,0.00,FEW,,0.00,0.0,WeatherDisplay:10.37,2013-02-09 23:06:00,
2013-02-09 18:11:00,47.6,20.6,30.28,NW,317,0.0,1.0,34,0.00,FEW,,0.00,0.0,WeatherDisplay:10.37,2013-02-09 23:11:00,
2013-02-09 18:16:00,47.4,25.4,30.28,NW,317,0.0,1.0,42,0.00,FEW,,0.00,0.0,WeatherDisplay:10.37,2013-02-09 23:16:00,
2013-02-09 18:21:00,47.1,25.2,30.28,NW,317,0.0,0.0,42,0.00,FEW,,0.00,0.0,WeatherDisplay:10.37,2013-02-09 23:21:00,
2013-02-09 18:26:00,46.8,25.4,30.28,NW,317,0.0,0.0,43,0.00,FEW,,0.00,0.0,WeatherDisplay:10.37,2013-02-09 23:26:00,
2013-02-09 18:31:00,46.4,27.8,30.28,NW,317,0.0,0.0,48,0.00,FEW,,0.00,0.0,WeatherDisplay:10.37,2013-02-09 23:31:00,
2013-02-09 18:36:00,46.0,27.9,30.28,NW,317,0.0,0.0,49,0.00,FEW,,0.00,0.0,WeatherDisplay:10.37,2013-02-09 23:36:00,
2013-02-09 18:41:00,45.5,27.9,30.28,NW,317,0.0,0.0,50,0.00,FEW,,0.00,0.0,WeatherDisplay:10.37,2013-02-09 23:41:00,
2013-02-09 18:46:00,45.1,27.6,30.28,NW,317,0.0,0.0,50,0.00,FEW,,0.00,0.0,WeatherDisplay:10.37,2013-02-09 23:46:00,
2013-02-09 18:51:00,44.5,26.0,30.28,NW,317,0.0,0.0,48,0.00,FEW,,0.00,0.0,WeatherDisplay:10.37,2013-02-09 23:51:00,
2013-02-09 18:56:00,44.1,26.2,30.28,NW,317,0.0,0.0,49,0.00,FEW,,0.00,0.0,WeatherDisplay:10.37,2013-02-09 23:56:00,
2013-02-09 19:01:00,43.6,28.0,30.28,NW,317,0.0,0.0,54,0.00,FEW,,0.00,0.0,WeatherDisplay:10.37,2013-02-10 00:01:00,
2013-02-09 19:06:00,43.2,27.2,30.28,NW,317,0.0,0.0,53,0.00,FEW,,0.00,0.0,WeatherDisplay:10.37,2013-02-10 00:06:00,
2013-02-09 19:11:00,42.8,26.8,30.29,NW,317,0.0,0.0,53,0.00,FEW,,0.00,0.0,WeatherDisplay:10.37,2013-02-10 00:11:00,
2013-02-09 19:16:00,42.3,26.4,30.29,NW,317,0.0,0.0,53,0.00,FEW,,0.00,0.0,WeatherDisplay:10.37,2013-02-10 00:16:00,
2013-02-09 19:21:00,42.0,26.1,30.29,NW,317,0.0,0.0,53,0.00,FEW,,0.00,0.0,WeatherDisplay:10.37,2013-02-10 00:21:00,
2013-02-09 19:26:00,41.6,25.7,30.30,NW,317,0.0,0.0,53,0.00,FEW,,0.00,0.0,WeatherDisplay:10.37,2013-02-10 00:26:00,
2013-02-09 19:31:00,41.2,25.8,30.30,NW,317,0.0,0.0,54,0.00,FEW,,0.00,0.0,WeatherDisplay:10.37,2013-02-10 00:31:00,
2013-02-09 19:36:00,40.8,25.9,30.30,NW,317,0.0,0.0,55,0.00,FEW,,0.00,0.0,WeatherDisplay:10.37,2013-02-10 00:36:00,
2013-02-09 19:41:00,40.5,27.3,30.30,NW,317,0.0,0.0,59,0.00,FEW,,0.00,0.0,WeatherDisplay:10.37,2013-02-10 00:41:00,
2013-02-09 19:46:00,40.1,27.7,30.30,NW,317,0.0,0.0,61,0.00,FEW,,0.00,0.0,WeatherDisplay:10.37,2013-02-10 00:46:00,
2013-02-09 19:51:00,39.8,27.4,30.31,NW,317,0.0,0.0,61,0.00,FEW,,0.00,0.0,WeatherDisplay:10.37,2013-02-10 00:51:00,
2013-02-09 19:56:00,39.5,28.3,30.31,NW,317,0.0,0.0,64,0.00,FEW,,0.00,0.0,WeatherDisplay:10.37,2013-02-10 00:56:00,
2013-02-09 20:01:00,39.2,28.8,30.31,NW,317,0.0,0.0,66,0.00,FEW,,0.00,0.0,WeatherDisplay:10.37,2013-02-10 01:01:00,
2013-02-09 20:06:00,38.8,29.5,30.30,NW,317,0.0,0.0,69,0.00,FEW,,0.00,0.0,WeatherDisplay:10.37,2013-02-10 01:06:00,
2013-02-09 20:11:00,38.3,29.0,30.30,NW,317,0.0,0.0,69,0.00,FEW,,0.00,0.0,WeatherDisplay:10.37,2013-02-10 01:11:00,
2013-02-09 20:16:00,38.2,28.9,30.31,NW,317,0.0,0.0,69,0.00,FEW,,0.00,0.0,WeatherDisplay:10.37,2013-02-10 01:16:00,
2013-02-09 20:21:00,37.9,29.0,30.31,NW,317,0.0,0.0,70,0.00,FEW,,0.00,0.0,WeatherDisplay:10.37,2013-02-10 01:21:00,
2013-02-09 20:26:00,37.6,28.7,30.31,NW,317,0.0,0.0,70,0.00,FEW,,0.00,0.0,WeatherDisplay:10.37,2013-02-10 01:26:00,
2013-02-09 20:31:00,37.4,28.1,30.32,NW,317,0.0,0.0,69,0.00,FEW,,0.00,0.0,WeatherDisplay:10.37,2013-02-10 01:31:00,
2013-02-09 20:36:00,37.2,29.0,30.32,NW,317,0.0,0.0,72,0.00,FEW,,0.00,0.0,WeatherDisplay:10.37,2013-02-10 01:36:00,
2013-02-09 20:41:00,37.0,28.8,30.32,NW,317,0.0,0.0,72,0.00,FEW,,0.00,0.0,WeatherDisplay:10.37,2013-02-10 01:41:00,
2013-02-09 20:46:00,36.8,28.3,30.32,NW,317,0.0,0.0,71,0.00,FEW,,0.00,0.0,WeatherDisplay:10.37,2013-02-10 01:46:00,
2013-02-09 20:51:00,36.6,28.1,30.33,NW,317,0.0,0.0,71,0.00,FEW,,0.00,0.0,WeatherDisplay:10.37,2013-02-10 01:51:00,
2013-02-09 20:56:00,36.3,27.8,30.33,NW,317,0.0,0.0,71,0.00,FEW,,0.00,0.0,WeatherDisplay:10.37,2013-02-10 01:56:00,
2013-02-09 21:01:00,36.2,27.7,30.33,NW,317,0.0,0.0,71,0.00,FEW,,0.00,0.0,WeatherDisplay:10.37,2013-02-10 02:01:00,
2013-02-09 21:06:00,36.0,27.8,30.33,NW,317,0.0,0.0,72,0.00,FEW,,0.00,0.0,WeatherDisplay:10.37,2013-02-10 02:06:00,
2013-02-09 21:11:00,35.8,27.7,30.33,NW,317,0.0,0.0,72,0.00,FEW,,0.00,0.0,WeatherDisplay:10.37,2013-02-10 02:11:00,
2013-02-09 21:16:00,35.6,27.8,30.33,NW,317,0.0,0.0,73,0.00,FEW,,0.00,0.0,WeatherDisplay:10.37,2013-02-10 02:16:00,
2013-02-09 21:21:00,35.5,27.7,30.33,NW,317,0.0,0.0,73,0.00,FEW,,0.00,0.0,WeatherDisplay:10.37,2013-02-10 02:21:00,
2013-02-09 21:26:00,35.3,27.8,30.33,NW,317,0.0,0.0,74,0.00,FEW,,0.00,0.0,WeatherDisplay:10.37,2013-02-10 02:26:00,
2013-02-09 21:31:00,35.0,27.5,30.33,NW,317,0.0,0.0,74,0.00,FEW,,0.00,0.0,WeatherDisplay:10.37,2013-02-10 02:31:00,
2013-02-09 21:36:00,34.9,27.5,30.34,NW,317,0.0,0.0,74,0.00,FEW,,0.00,0.0,WeatherDisplay:10.37,2013-02-10 02:36:00,
2013-02-09 21:41:00,34.7,27.3,30.34,NW,317,0.0,0.0,74,0.00,FEW,,0.00,0.0,WeatherDisplay:10.37,2013-02-10 02:41:00,
2013-02-09 21:46:00,34.6,27.8,30.34,NW,317,0.0,0.0,76,0.00,FEW,,0.00,0.0,WeatherDisplay:10.37,2013-02-10 02:46:00,
2013-02-09 21:51:00,34.4,27.9,30.34,NW,317,0.0,0.0,77,0.00,FEW,,0.00,0.0,WeatherDisplay:10.37,2013-02-10 02:51:00,
2013-02-09 21:56:00,34.3,27.5,30.34,NW,317,0.0,0.0,76,0.00,FEW,,0.00,0.0,WeatherDisplay:10.37,2013-02-10 02:56:00,
2013-02-09 22:01:00,34.1,27.3,30.35,NW,317,0.0,0.0,76,0.00,FEW,,0.00,0.0,WeatherDisplay:10.37,2013-02-10 03:01:00,
2013-02-09 22:06:00,34.0,27.2,30.34,NW,317,0.0,0.0,76,0.00,FEW,,0.00,0.0,WeatherDisplay:10.37,2013-02-10 03:06:00,
2013-02-09 22:11:00,33.8,27.0,30.34,NW,317,0.0,0.0,76,0.00,FEW,,0.00,0.0,WeatherDisplay:10.37,2013-02-10 03:11:00,
2013-02-09 22:16:00,33.7,26.6,30.34,NW,317,0.0,0.0,75,0.00,FEW,,0.00,0.0,WeatherDisplay:10.37,2013-02-10 03:16:00,
2013-02-09 22:21:00,33.5,26.4,30.34,NW,317,0.0,0.0,75,0.00,FEW,,0.00,0.0,WeatherDisplay:10.37,2013-02-10 03:21:00,
2013-02-09 22:26:00,33.4,27.0,30.34,NW,317,0.0,0.0,77,0.00,FEW,,0.00,0.0,WeatherDisplay:10.37,2013-02-10 03:26:00,
2013-02-09 22:31:00,33.2,27.1,30.34,NW,317,0.0,0.0,78,0.00,FEW,,0.00,0.0,WeatherDisplay:10.37,2013-02-10 03:31:00,
2013-02-09 22:36:00,33.1,27.0,30.34,NW,317,0.0,0.0,78,0.00,FEW,,0.00,0.0,WeatherDisplay:10.37,2013-02-10 03:36:00,
2013-02-09 22:41:00,32.9,26.8,30.34,NW,317,0.0,0.0,78,0.00,FEW,,0.00,0.0,WeatherDisplay:10.37,2013-02-10 03:41:00,
2013-02-09 22:51:00,32.7,26.6,30.34,NW,317,0.0,0.0,78,0.00,FEW,,0.00,0.0,WeatherDisplay:10.37,2013-02-10 03:51:00,
2013-02-09 22:56:00,32.5,26.4,30.35,NW,317,0.0,0.0,78,0.00,FEW,,0.00,0.0,WeatherDisplay:10.37,2013-02-10 03:56:00,
2013-02-09 23:01:00,32.4,26.3,30.35,NW,317,0.0,0.0,78,0.00,SCT,,0.00,0.0,WeatherDisplay:10.37,2013-02-10 04:01:00,
2013-02-09 23:06:00,32.4,26.3,30.35,NW,317,0.0,0.0,78,0.00,SCT,,0.00,0.0,WeatherDisplay:10.37,2013-02-10 04:06:00,
2013-02-09 23:11:00,32.2,26.1,30.35,NW,317,0.0,0.0,78,0.00,SCT,,0.00,0.0,WeatherDisplay:10.37,2013-02-10 04:11:00,
2013-02-09 23:16:00,32.1,26.0,30.35,NW,317,0.0,0.0,78,0.00,SCT,,0.00,0.0,WeatherDisplay:10.37,2013-02-10 04:16:00,
2013-02-09 23:21:00,31.9,25.8,30.35,NW,317,0.0,0.0,78,0.00,SCT,,0.00,0.0,WeatherDisplay:10.37,2013-02-10 04:21:00,
2013-02-09 23:26:00,31.8,25.7,30.35,NW,317,0.0,0.0,78,0.00,SCT,,0.00,0.0,WeatherDisplay:10.37,2013-02-10 04:26:00,
2013-02-09 23:31:00,31.6,25.5,30.35,NW,317,0.0,0.0,78,0.00,SCT,,0.00,0.0,WeatherDisplay:10.37,2013-02-10 04:31:00,
2013-02-09 23:36:00,31.5,25.4,30.35,NW,317,0.0,0.0,78,0.00,SCT,,0.00,0.0,WeatherDisplay:10.37,2013-02-10 04:36:00,
2013-02-09 23:41:00,31.3,25.5,30.35,NW,317,0.0,0.0,79,0.00,SCT,,0.00,0.0,WeatherDisplay:10.37,2013-02-10 04:41:00,
2013-02-09 23:46:00,31.2,25.5,30.35,NW,317,0.0,0.0,79,0.00,SCT,,0.00,0.0,WeatherDisplay:10.37,2013-02-10 04:46:00,
2013-02-09 23:51:00,31.1,25.4,30.35,NW,317,0.0,0.0,79,0.00,SCT,,0.00,0.0,WeatherDisplay:10.37,2013-02-10 04:51:00,
2013-02-09 23:56:00,31.0,24.9,30.35,NW,317,0.0,0.0,78,0.00,SCT,,0.00,0.0,WeatherDisplay:10.37,2013-02-10 04:56:00,